Time,TemperatureF,DewpointF,PressureIn,WindDirection,WindDirectionDegrees,WindSpeedMPH,WindSpeedGustMPH,Humidity,HourlyPrecipIn,Conditions,Clouds,dailyrainin,SoftwareType,DateUTC
2013-04-18 00:02:00,43.0,7.0,-100.00,NNE,24,4.0,6.0,22,-99.99,,,-99.99,,2013-04-18 07:02:00,
2013-04-18 00:12:00,43.0,7.0,-100.00,North,357,6.0,10.0,22,-99.99,,,-99.99,,2013-04-18 07:12:00,
2013-04-18 00:22:00,44.0,8.0,-100.00,North,355,4.0,7.0,22,-99.99,,,-99.99,,2013-04-18 07:22:00,
2013-04-18 00:32:00,43.0,8.0,-100.00,NNW,347,6.0,9.0,23,-99.99,,,-99.99,,2013-04-18 07:32:00,
2013-04-18 00:42:00,42.0,8.0,-100.00,North,350,6.0,10.0,24,-99.99,,,-99.99,,2013-04-18 07:42:00,
2013-04-18 00:52:00,42.0,7.0,-100.00,NNW,343,8.0,10.0,23,-99.99,,,-99.99,,2013-04-18 07:52:00,
2013-04-18 01:02:00,43.0,7.0,-100.00,NNW,347,9.0,11.0,22,-99.99,,,-99.99,,2013-04-18 08:02:00,
2013-04-18 01:12:00,42.0,7.0,-100.00,North,358,8.0,11.0,23,-99.99,,,-99.99,,2013-04-18 08:12:00,
2013-04-18 01:22:00,42.0,8.0,-100.00,North,355,7.0,10.0,24,-99.99,,,-99.99,,2013-04-18 08:22:00,
2013-04-18 01:32:00,42.0,7.0,-100.00,NNW,347,8.0,11.0,23,-99.99,,,-99.99,,2013-04-18 08:32:00,
2013-04-18 01:42:00,42.0,7.0,-100.00,NNW,346,10.0,14.0,23,-99.99,,,-99.99,,2013-04-18 08:42:00,
2013-04-18 01:52:00,43.0,7.0,-100.00,NNW,348,8.0,10.0,22,-99.99,,,-99.99,,2013-04-18 08:52:00,
2013-04-18 02:01:00,42.0,7.0,-100.00,North,359,7.0,10.0,23,-99.99,,,-99.99,,2013-04-18 09:01:00,
2013-04-18 02:11:00,40.0,8.0,-100.00,NE,46,3.0,8.0,26,-99.99,,,-99.99,,2013-04-18 09:11:00,
2013-04-18 02:22:00,39.0,7.0,-100.00,North,10,2.0,7.0,26,-99.99,,,-99.99,,2013-04-18 09:22:00,
2013-04-18 02:32:00,40.0,8.0,-100.00,NW,321,5.0,7.0,26,-99.99,,,-99.99,,2013-04-18 09:32:00,
2013-04-18 02:42:00,39.0,7.0,-100.00,North,1,4.0,6.0,26,-99.99,,,-99.99,,2013-04-18 09:42:00,
2013-04-18 02:52:00,39.0,8.0,-100.00,North,358,4.0,7.0,27,-99.99,,,-99.99,,2013-04-18 09:52:00,
2013-04-18 03:02:00,38.0,6.0,-100.00,SE,141,1.0,3.0,26,-99.99,,,-99.99,,2013-04-18 10:02:00,
2013-04-18 03:12:00,37.0,7.0,-100.00,East,83,1.0,4.0,28,-99.99,,,-99.99,,2013-04-18 10:12:00,
2013-04-18 03:22:00,37.0,7.0,-100.00,NNE,19,4.0,5.0,28,-99.99,,,-99.99,,2013-04-18 10:22:00,
2013-04-18 03:32:00,38.0,7.0,-100.00,NNE,15,3.0,6.0,27,-99.99,,,-99.99,,2013-04-18 10:32:00,
2013-04-18 03:42:00,39.0,8.0,-100.00,NNW,347,5.0,8.0,27,-99.99,,,-99.99,,2013-04-18 10:42:00,
2013-04-18 03:52:00,38.0,6.0,-100.00,NE,36,3.0,6.0,26,-99.99,,,-99.99,,2013-04-18 10:52:00,
2013-04-18 04:02:00,38.0,6.0,-100.00,NE,48,1.0,5.0,26,-99.99,,,-99.99,,2013-04-18 11:02:00,
2013-04-18 04:12:00,37.0,7.0,-100.00,NE,35,2.0,7.0,28,-99.99,,,-99.99,,2013-04-18 11:12:00,
2013-04-18 04:22:00,37.0,6.0,-100.00,NE,37,2.0,7.0,27,-99.99,,,-99.99,,2013-04-18 11:22:00,
2013-04-18 04:32:00,38.0,6.0,-100.00,NNE,22,3.0,5.0,26,-99.99,,,-99.99,,2013-04-18 11:32:00,
2013-04-18 04:42:00,41.0,6.0,-100.00,NNE,20,5.0,10.0,23,-99.99,,,-99.99,,2013-04-18 11:42:00,
2013-04-18 04:52:00,39.0,6.0,-100.00,NNE,33,3.0,8.0,25,-99.99,,,-99.99,,2013-04-18 11:52:00,
2013-04-18 05:02:00,41.0,6.0,-100.00,NNE,33,6.0,11.0,23,-99.99,,,-99.99,,2013-04-18 12:02:00,
2013-04-18 05:12:00,40.0,5.0,-100.00,SE,138,1.0,4.0,23,-99.99,,,-99.99,,2013-04-18 12:12:00,
2013-04-18 05:22:00,39.0,6.0,-100.00,ENE,70,2.0,6.0,25,-99.99,,,-99.99,,2013-04-18 12:22:00,
2013-04-18 05:32:00,40.0,7.0,-100.00,NE,43,2.0,4.0,25,-99.99,,,-99.99,,2013-04-18 12:32:00,
2013-04-18 05:42:00,40.0,7.0,-100.00,North,11,3.0,6.0,25,-99.99,,,-99.99,,2013-04-18 12:42:00,
2013-04-18 05:52:00,39.0,7.0,-100.00,NNW,344,1.0,5.0,26,-99.99,,,-99.99,,2013-04-18 12:52:00,
2013-04-18 06:12:00,43.0,6.0,-100.00,West,259,3.0,7.0,21,-99.99,,,-99.99,,2013-04-18 13:12:00,
2013-04-18 06:22:00,46.0,7.0,-100.00,West,265,4.0,10.0,20,-99.99,,,-99.99,,2013-04-18 13:22:00,
2013-04-18 06:32:00,49.0,7.0,-100.00,WSW,248,5.0,9.0,18,-99.99,,,-99.99,,2013-04-18 13:32:00,
2013-04-18 06:42:00,50.0,8.0,-100.00,NW,309,6.0,25.0,18,-99.99,,,-99.99,,2013-04-18 13:42:00,
2013-04-18 06:52:00,50.0,8.0,-100.00,North,6,7.0,15.0,18,-99.99,,,-99.99,,2013-04-18 13:52:00,
2013-04-18 07:02:00,50.0,8.0,-100.00,WNW,283,7.0,19.0,18,-99.99,,,-99.99,,2013-04-18 14:02:00,
2013-04-18 07:12:00,50.0,9.0,-100.00,WNW,287,8.0,18.0,19,-99.99,,,-99.99,,2013-04-18 14:12:00,
2013-04-18 07:22:00,50.0,9.0,-100.00,NNE,32,11.0,31.0,19,-99.99,,,-99.99,,2013-04-18 14:22:00,
2013-04-18 07:32:00,50.0,8.0,-100.00,NNE,29,16.0,31.0,18,-99.99,,,-99.99,,2013-04-18 14:32:00,
2013-04-18 07:42:00,51.0,9.0,-100.00,NE,38,17.0,29.0,18,-99.99,,,-99.99,,2013-04-18 14:42:00,
2013-04-18 07:52:00,51.0,9.0,-100.00,NE,48,18.0,35.0,18,-99.99,,,-99.99,,2013-04-18 14:52:00,
2013-04-18 08:02:00,51.0,10.0,-100.00,NE,46,16.0,30.0,19,-99.99,,,-99.99,,2013-04-18 15:02:00,
2013-04-18 08:12:00,51.0,10.0,-100.00,NE,50,20.0,37.0,19,-99.99,,,-99.99,,2013-04-18 15:12:00,
2013-04-18 08:22:00,51.0,10.0,-100.00,NE,54,18.0,29.0,19,-99.99,,,-99.99,,2013-04-18 15:22:00,
2013-04-18 08:33:00,51.0,10.0,-100.00,NE,54,18.0,29.0,19,-99.99,,,-99.99,,2013-04-18 15:33:00,
2013-04-18 08:42:00,52.0,11.0,-100.00,NE,52,18.0,29.0,19,-99.99,,,-99.99,,2013-04-18 15:42:00,
2013-04-18 08:52:00,52.0,11.0,-100.00,ENE,61,17.0,34.0,19,-99.99,,,-99.99,,2013-04-18 15:52:00,
2013-04-18 09:03:00,52.0,11.0,-100.00,NE,52,15.0,27.0,19,-99.99,,,-99.99,,2013-04-18 16:03:00,
2013-04-18 09:13:00,53.0,12.0,-100.00,ENE,60,12.0,24.0,19,-99.99,,,-99.99,,2013-04-18 16:13:00,
2013-04-18 09:22:00,53.0,11.0,-100.00,ENE,63,14.0,27.0,18,-99.99,,,-99.99,,2013-04-18 16:22:00,
2013-04-18 09:33:00,53.0,11.0,-100.00,ENE,59,11.0,23.0,18,-99.99,,,-99.99,,2013-04-18 16:33:00,
2013-04-18 09:42:00,53.0,11.0,-100.00,ENE,63,13.0,29.0,18,-99.99,,,-99.99,,2013-04-18 16:42:00,
2013-04-18 09:52:00,53.0,11.0,-100.00,ENE,74,15.0,28.0,18,-99.99,,,-99.99,,2013-04-18 16:52:00,
2013-04-18 10:02:00,53.0,12.0,-100.00,NE,56,11.0,20.0,19,-99.99,,,-99.99,,2013-04-18 17:02:00,
2013-04-18 10:12:00,53.0,11.0,-100.00,East,81,13.0,22.0,18,-99.99,,,-99.99,,2013-04-18 17:12:00,
2013-04-18 10:22:00,54.0,9.0,-100.00,East,95,15.0,22.0,16,-99.99,,,-99.99,,2013-04-18 17:22:00,
2013-04-18 10:33:00,55.0,10.0,-100.00,East,81,10.0,21.0,16,-99.99,,,-99.99,,2013-04-18 17:33:00,
2013-04-18 10:42:00,55.0,8.0,-100.00,ENE,59,10.0,18.0,15,-99.99,,,-99.99,,2013-04-18 17:42:00,
2013-04-18 10:52:00,55.0,10.0,-100.00,NNE,26,8.0,18.0,16,-99.99,,,-99.99,,2013-04-18 17:52:00,
2013-04-18 11:02:00,55.0,10.0,-100.00,East,95,11.0,20.0,16,-99.99,,,-99.99,,2013-04-18 18:02:00,
2013-04-18 11:12:00,55.0,10.0,-100.00,ESE,105,12.0,25.0,16,-99.99,,,-99.99,,2013-04-18 18:12:00,
2013-04-18 11:22:00,56.0,10.0,-100.00,East,92,12.0,24.0,16,-99.99,,,-99.99,,2013-04-18 18:22:00,
2013-04-18 11:32:00,56.0,10.0,-100.00,ESE,108,13.0,22.0,16,-99.99,,,-99.99,,2013-04-18 18:32:00,
2013-04-18 11:42:00,56.0,10.0,-100.00,ESE,109,14.0,24.0,16,-99.99,,,-99.99,,2013-04-18 18:42:00,
2013-04-18 11:52:00,56.0,9.0,-100.00,ESE,107,11.0,20.0,15,-99.99,,,-99.99,,2013-04-18 18:52:00,
2013-04-18 12:02:00,57.0,10.0,-100.00,East,95,11.0,21.0,15,-99.99,,,-99.99,,2013-04-18 19:02:00,
2013-04-18 12:12:00,57.0,10.0,-100.00,East,96,12.0,22.0,15,-99.99,,,-99.99,,2013-04-18 19:12:00,
2013-04-18 12:22:00,58.0,11.0,-100.00,ENE,76,11.0,25.0,15,-99.99,,,-99.99,,2013-04-18 19:22:00,
2013-04-18 12:32:00,58.0,9.0,-100.00,ENE,72,9.0,20.0,14,-99.99,,,-99.99,,2013-04-18 19:32:00,
2013-04-18 12:42:00,58.0,11.0,-100.00,East,95,12.0,20.0,15,-99.99,,,-99.99,,2013-04-18 19:42:00,
2013-04-18 12:52:00,59.0,10.0,-100.00,ENE,71,11.0,19.0,14,-99.99,,,-99.99,,2013-04-18 19:52:00,
2013-04-18 13:02:00,60.0,9.0,-100.00,ENE,62,8.0,15.0,13,-99.99,,,-99.99,,2013-04-18 20:02:00,
2013-04-18 13:12:00,61.0,8.0,-100.00,NNW,338,4.0,11.0,12,-99.99,,,-99.99,,2013-04-18 20:12:00,
2013-04-18 13:22:00,60.0,9.0,-100.00,NE,36,5.0,13.0,13,-99.99,,,-99.99,,2013-04-18 20:22:00,
2013-04-18 13:32:00,61.0,6.0,-100.00,North,349,11.0,25.0,11,-99.99,,,-99.99,,2013-04-18 20:32:00,
2013-04-18 13:42:00,61.0,8.0,-100.00,NNE,24,8.0,18.0,12,-99.99,,,-99.99,,2013-04-18 20:42:00,
2013-04-18 13:52:00,61.0,6.0,-100.00,North,359,6.0,13.0,11,-99.99,,,-99.99,,2013-04-18 20:52:00,
2013-04-18 14:02:00,61.0,6.0,-100.00,North,11,8.0,15.0,11,-99.99,,,-99.99,,2013-04-18 21:02:00,
2013-04-18 14:12:00,62.0,7.0,-100.00,NNW,339,10.0,17.0,11,-99.99,,,-99.99,,2013-04-18 21:12:00,
2013-04-18 14:22:00,61.0,6.0,-100.00,North,7,9.0,14.0,11,-99.99,,,-99.99,,2013-04-18 21:22:00,
2013-04-18 14:32:00,62.0,7.0,-100.00,NNW,344,11.0,18.0,11,-99.99,,,-99.99,,2013-04-18 21:32:00,
2013-04-18 14:43:00,62.0,7.0,-100.00,NNW,344,11.0,18.0,11,-99.99,,,-99.99,,2013-04-18 21:43:00,
2013-04-18 14:52:00,63.0,8.0,-100.00,NNW,342,6.0,11.0,11,-99.99,,,-99.99,,2013-04-18 21:52:00,
2013-04-18 15:02:00,63.0,6.0,-100.00,NNW,334,8.0,15.0,10,-99.99,,,-99.99,,2013-04-18 22:02:00,
2013-04-18 15:12:00,63.0,6.0,-100.00,NNW,340,6.0,15.0,10,-99.99,,,-99.99,,2013-04-18 22:12:00,
2013-04-18 15:22:00,64.0,6.0,-100.00,NNW,338,8.0,12.0,10,-99.99,,,-99.99,,2013-04-18 22:22:00,
2013-04-18 15:32:00,63.0,6.0,-100.00,NW,304,9.0,15.0,10,-99.99,,,-99.99,,2013-04-18 22:32:00,
2013-04-18 15:42:00,63.0,6.0,-100.00,NW,315,7.0,14.0,10,-99.99,,,-99.99,,2013-04-18 22:42:00,
2013-04-18 15:52:00,63.0,6.0,-100.00,NNW,335,7.0,15.0,10,-99.99,,,-99.99,,2013-04-18 22:52:00,
2013-04-18 16:03:00,63.0,6.0,-100.00,NNW,331,9.0,15.0,10,-99.99,,,-99.99,,2013-04-18 23:03:00,
2013-04-18 16:11:00,64.0,6.0,-100.00,North,359,6.0,11.0,10,-99.99,,,-99.99,,2013-04-18 23:11:00,
2013-04-18 16:21:00,64.0,6.0,-100.00,NNE,28,9.0,15.0,10,-99.99,,,-99.99,,2013-04-18 23:21:00,
2013-04-18 16:32:00,64.0,4.0,-100.00,North,357,7.0,12.0,9,-99.99,,,-99.99,,2013-04-18 23:32:00,
2013-04-18 16:42:00,65.0,5.0,-100.00,NNW,332,8.0,16.0,9,-99.99,,,-99.99,,2013-04-18 23:42:00,
2013-04-18 16:52:00,64.0,4.0,-100.00,NW,325,8.0,15.0,9,-99.99,,,-99.99,,2013-04-18 23:52:00,
2013-04-18 17:01:00,65.0,5.0,-100.00,NNW,338,8.0,16.0,9,-99.99,,,-99.99,,2013-04-19 00:01:00,
2013-04-18 17:11:00,65.0,5.0,-100.00,North,351,9.0,13.0,9,-99.99,,,-99.99,,2013-04-19 00:11:00,
2013-04-18 17:21:00,65.0,5.0,-100.00,North,349,8.0,15.0,9,-99.99,,,-99.99,,2013-04-19 00:21:00,
2013-04-18 17:31:00,65.0,7.0,-100.00,NNW,334,6.0,12.0,10,-99.99,,,-99.99,,2013-04-19 00:31:00,
2013-04-18 17:42:00,65.0,7.0,-100.00,NNW,334,6.0,12.0,10,-99.99,,,-99.99,,2013-04-19 00:42:00,
2013-04-18 17:51:00,64.0,6.0,-100.00,NW,324,6.0,12.0,10,-99.99,,,-99.99,,2013-04-19 00:51:00,
2013-04-18 18:01:00,64.0,6.0,-100.00,NW,315,6.0,11.0,10,-99.99,,,-99.99,,2013-04-19 01:01:00,
2013-04-18 18:11:00,64.0,6.0,-100.00,NNW,341,8.0,12.0,10,-99.99,,,-99.99,,2013-04-19 01:11:00,
2013-04-18 18:21:00,64.0,6.0,-100.00,NNW,338,7.0,11.0,10,-99.99,,,-99.99,,2013-04-19 01:21:00,
2013-04-18 18:31:00,64.0,8.0,-100.00,NNW,336,6.0,10.0,11,-99.99,,,-99.99,,2013-04-19 01:31:00,
2013-04-18 18:42:00,64.0,8.0,-100.00,NNW,333,6.0,9.0,11,-99.99,,,-99.99,,2013-04-19 01:42:00,
2013-04-18 18:52:00,63.0,8.0,-100.00,NNW,327,5.0,8.0,11,-99.99,,,-99.99,,2013-04-19 01:52:00,
2013-04-18 19:01:00,62.0,9.0,-100.00,NNW,327,4.0,6.0,12,-99.99,,,-99.99,,2013-04-19 02:01:00,
2013-04-18 19:11:00,60.0,7.0,-100.00,NW,317,4.0,5.0,12,-99.99,,,-99.99,,2013-04-19 02:11:00,
2013-04-18 19:21:00,59.0,8.0,-100.00,NW,319,4.0,6.0,13,-99.99,,,-99.99,,2013-04-19 02:21:00,
2013-04-18 19:31:00,59.0,8.0,-100.00,NNW,330,4.0,6.0,13,-99.99,,,-99.99,,2013-04-19 02:31:00,
2013-04-18 19:42:00,59.0,8.0,-100.00,NNW,335,5.0,6.0,13,-99.99,,,-99.99,,2013-04-19 02:42:00,
2013-04-18 19:51:00,57.0,8.0,-100.00,NNE,17,2.0,4.0,14,-99.99,,,-99.99,,2013-04-19 02:51:00,
2013-04-18 20:01:00,57.0,10.0,-100.00,WNW,289,4.0,7.0,15,-99.99,,,-99.99,,2013-04-19 03:01:00,
2013-04-18 20:11:00,55.0,10.0,-100.00,NW,318,3.0,5.0,16,-99.99,,,-99.99,,2013-04-19 03:11:00,
2013-04-18 20:21:00,54.0,9.0,-100.00,NNW,348,2.0,5.0,16,-99.99,,,-99.99,,2013-04-19 03:21:00,
2013-04-18 20:32:00,53.0,9.0,-100.00,NNE,21,3.0,6.0,17,-99.99,,,-99.99,,2013-04-19 03:32:00,
2013-04-18 20:43:00,52.0,12.0,-100.00,NW,315,4.0,8.0,20,-99.99,,,-99.99,,2013-04-19 03:43:00,
2013-04-18 20:53:00,52.0,13.0,-100.00,NW,319,6.0,8.0,21,-99.99,,,-99.99,,2013-04-19 03:53:00,
2013-04-18 21:03:00,52.0,12.0,-100.00,NE,39,3.0,6.0,20,-99.99,,,-99.99,,2013-04-19 04:03:00,
2013-04-18 21:12:00,51.0,12.0,-100.00,NW,323,4.0,7.0,21,-99.99,,,-99.99,,2013-04-19 04:12:00,
2013-04-18 21:23:00,50.0,12.0,-100.00,North,352,4.0,5.0,21,-99.99,,,-99.99,,2013-04-19 04:23:00,
2013-04-18 21:32:00,49.0,9.0,-100.00,North,355,2.0,5.0,19,-99.99,,,-99.99,,2013-04-19 04:32:00,
2013-04-18 21:43:00,48.0,10.0,-100.00,NNW,341,1.0,3.0,21,-99.99,,,-99.99,,2013-04-19 04:43:00,
2013-04-18 21:52:00,49.0,10.0,-100.00,NW,320,2.0,3.0,20,-99.99,,,-99.99,,2013-04-19 04:52:00,
2013-04-18 22:02:00,50.0,11.0,-100.00,WSW,245,3.0,8.0,20,-99.99,,,-99.99,,2013-04-19 05:02:00,
2013-04-18 22:11:00,49.0,10.0,-100.00,East,95,2.0,7.0,20,-99.99,,,-99.99,,2013-04-19 05:11:00,
2013-04-18 22:22:00,49.0,11.0,-100.00,South,171,2.0,5.0,21,-99.99,,,-99.99,,2013-04-19 05:22:00,
2013-04-18 22:31:00,46.0,11.0,-100.00,NW,320,1.0,4.0,24,-99.99,,,-99.99,,2013-04-19 05:31:00,
2013-04-18 22:42:00,46.0,11.0,-100.00,ENE,75,2.0,5.0,24,-99.99,,,-99.99,,2013-04-19 05:42:00,
2013-04-18 22:51:00,47.0,11.0,-100.00,North,5,2.0,4.0,23,-99.99,,,-99.99,,2013-04-19 05:51:00,
2013-04-18 23:01:00,47.0,10.0,-100.00,North,2,3.0,6.0,22,-99.99,,,-99.99,,2013-04-19 06:01:00,
2013-04-18 23:11:00,46.0,8.0,-100.00,NNE,12,3.0,5.0,21,-99.99,,,-99.99,,2013-04-19 06:11:00,
2013-04-18 23:22:00,47.0,6.0,-100.00,North,352,4.0,6.0,18,-99.99,,,-99.99,,2013-04-19 06:22:00,
2013-04-18 23:31:00,48.0,5.0,-100.00,North,357,5.0,10.0,17,-99.99,,,-99.99,,2013-04-19 06:31:00,
2013-04-18 23:42:00,47.0,4.0,-100.00,North,351,6.0,11.0,17,-99.99,,,-99.99,,2013-04-19 06:42:00,
2013-04-18 23:52:00,47.0,4.0,-100.00,North,349,7.0,10.0,17,-99.99,,,-99.99,,2013-04-19 06:52:00,